GEFSNE_prec_meanprecacc_090.txt.gz
Total_Precipitation_Accumulation
0.51 0.55 0.59 0.58 0.60 0.63 0.71 0.86 0.98 0.88 0.67 0.54 0.51 0.49 0.50 0.49 0.50 0.47 0.41 0.45 0.44 0.42 0.44 0.45 0.45 0.48 0.49 0.53 0.60 0.68 0.74 0.78 0.82 0.88 0.95 1.05 1.15 1.26
0.36 0.41 0.45 0.47 0.51 0.56 0.62 0.70 0.84 0.94 0.80 0.56 0.49 0.47 0.48 0.45 0.45 0.41 0.37 0.41 0.40 0.39 0.39 0.40 0.40 0.39 0.40 0.43 0.47 0.52 0.57 0.62 0.69 0.77 0.87 0.96 1.05 1.17
0.25 0.31 0.36 0.40 0.44 0.47 0.51 0.56 0.63 0.73 0.74 0.55 0.46 0.43 0.42 0.38 0.35 0.34 0.30 0.29 0.28 0.31 0.34 0.37 0.39 0.39 0.40 0.41 0.42 0.44 0.47 0.51 0.59 0.69 0.79 0.88 0.96 1.00
0.18 0.22 0.26 0.30 0.36 0.41 0.45 0.47 0.48 0.52 0.60 0.54 0.40 0.35 0.32 0.28 0.26 0.25 0.24 0.24 0.22 0.24 0.30 0.35 0.40 0.41 0.40 0.39 0.39 0.40 0.42 0.45 0.49 0.53 0.60 0.67 0.77 0.87
0.18 0.23 0.28 0.33 0.38 0.41 0.43 0.44 0.44 0.46 0.53 0.56 0.40 0.31 0.28 0.24 0.24 0.20 0.21 0.21 0.20 0.21 0.25 0.27 0.30 0.33 0.36 0.38 0.38 0.38 0.38 0.40 0.42 0.46 0.49 0.53 0.60 0.70
0.23 0.28 0.31 0.33 0.33 0.33 0.34 0.36 0.39 0.41 0.42 0.46 0.42 0.33 0.28 0.22 0.22 0.20 0.20 0.19 0.20 0.21 0.24 0.26 0.28 0.30 0.30 0.31 0.31 0.31 0.31 0.35 0.42 0.51 0.58 0.62 0.63 0.65
0.31 0.31 0.30 0.28 0.26 0.25 0.26 0.28 0.31 0.34 0.41 0.49 0.46 0.36 0.28 0.24 0.21 0.22 0.27 0.26 0.24 0.22 0.24 0.24 0.27 0.32 0.35 0.38 0.40 0.39 0.40 0.45 0.55 0.66 0.73 0.78 0.79 0.79
0.30 0.26 0.24 0.21 0.19 0.19 0.20 0.22 0.28 0.37 0.45 0.52 0.50 0.42 0.30 0.29 0.33 0.40 0.46 0.52 0.45 0.28 0.33 0.39 0.44 0.51 0.52 0.53 0.59 0.60 0.60 0.63 0.67 0.72 0.76 0.79 0.80 0.84
0.22 0.19 0.17 0.15 0.14 0.12 0.11 0.15 0.19 0.27 0.36 0.40 0.36 0.26 0.24 0.24 0.38 0.50 0.54 0.60 0.52 0.38 0.45 0.52 0.49 0.51 0.51 0.54 0.62 0.62 0.58 0.57 0.59 0.63 0.67 0.69 0.69 0.73
0.09 0.08 0.07 0.06 0.06 0.10 0.16 0.20 0.14 0.11 0.12 0.14 0.14 0.15 0.19 0.25 0.41 0.59 0.66 0.68 0.53 0.42 0.41 0.48 0.41 0.39 0.38 0.40 0.47 0.49 0.46 0.47 0.50 0.54 0.57 0.58 0.58 0.60
0.04 0.04 0.05 0.04 0.06 0.18 0.26 0.26 0.14 0.05 0.04 0.08 0.13 0.14 0.17 0.20 0.28 0.49 0.68 0.78 0.64 0.37 0.31 0.38 0.38 0.38 0.36 0.33 0.36 0.42 0.42 0.43 0.44 0.45 0.47 0.49 0.52 0.56
0.04 0.03 0.03 0.05 0.12 0.25 0.26 0.24 0.13 0.05 0.08 0.07 0.06 0.05 0.04 0.06 0.16 0.36 0.75 1.13 0.92 0.58 0.32 0.42 0.47 0.53 0.63 0.36 0.31 0.35 0.35 0.34 0.34 0.35 0.36 0.39 0.43 0.47
0.06 0.03 0.02 0.09 0.19 0.23 0.19 0.09 0.10 0.18 0.15 0.06 0.05 0.04 0.04 0.04 0.08 0.16 0.42 1.04 1.34 0.96 0.48 0.76 0.90 0.64 0.73 0.48 0.31 0.32 0.34 0.39 0.42 0.39 0.38 0.39 0.41 0.48
0.08 0.05 0.06 0.14 0.16 0.11 0.06 0.06 0.13 0.13 0.05 0.05 0.06 0.06 0.08 0.11 0.15 0.21 0.27 0.44 0.78 0.99 0.72 0.93 1.26 0.88 0.91 0.67 0.38 0.34 0.38 0.52 0.67 0.64 0.57 0.55 0.48 0.48
0.09 0.12 0.14 0.11 0.06 0.02 0.03 0.05 0.06 0.05 0.09 0.16 0.15 0.13 0.15 0.22 0.28 0.32 0.32 0.35 0.41 0.49 0.54 0.63 0.93 0.94 1.00 0.90 0.60 0.45 0.52 0.59 0.77 0.95 0.90 0.74 0.56 0.48
0.12 0.12 0.07 0.03 0.02 0.02 0.02 0.02 0.03 0.07 0.19 0.26 0.23 0.17 0.18 0.25 0.31 0.41 0.52 0.54 0.59 0.54 0.50 0.49 0.60 0.84 0.87 0.63 0.69 0.65 0.68 0.91 0.99 1.17 1.14 0.87 0.65 0.52
0.14 0.05 0.01 0.01 0.02 0.02 0.01 0.01 0.03 0.06 0.13 0.18 0.24 0.26 0.25 0.33 0.42 0.55 0.71 0.78 0.81 0.70 0.57 0.43 0.37 0.42 0.55 0.60 0.60 0.54 0.66 0.90 1.11 1.22 1.19 1.01 0.80 0.64
0.07 0.02 0.02 0.03 0.04 0.04 0.04 0.05 0.04 0.08 0.17 0.28 0.31 0.35 0.42 0.50 0.59 0.65 0.79 0.88 0.83 0.66 0.53 0.42 0.34 0.32 0.28 0.28 0.43 0.64 0.75 0.94 1.09 1.09 0.94 0.91 0.89 0.72
0.03 0.04 0.05 0.05 0.05 0.06 0.09 0.12 0.14 0.14 0.27 0.42 0.49 0.53 0.59 0.64 0.71 0.77 0.80 0.77 0.65 0.51 0.41 0.35 0.40 0.60 0.58 0.35 0.27 0.55 0.96 1.05 0.95 0.89 0.76 0.73 0.84 0.73
0.04 0.06 0.06 0.06 0.07 0.10 0.14 0.21 0.25 0.26 0.35 0.48 0.56 0.62 0.69 0.77 0.81 0.79 0.73 0.67 0.58 0.42 0.26 0.18 0.25 0.59 0.95 0.86 0.66 0.61 0.74 0.95 0.97 0.88 0.67 0.58 0.65 0.62
0.05 0.05 0.05 0.07 0.11 0.14 0.18 0.26 0.35 0.45 0.53 0.65 0.68 0.71 0.76 0.88 0.84 0.71 0.58 0.44 0.37 0.30 0.22 0.14 0.17 0.33 0.58 0.67 0.59 0.54 0.65 0.75 0.86 1.03 0.91 0.75 0.59 0.50
0.05 0.05 0.05 0.07 0.13 0.18 0.23 0.31 0.41 0.48 0.57 0.66 0.70 0.72 0.76 0.82 0.76 0.55 0.38 0.30 0.24 0.22 0.20 0.12 0.09 0.13 0.28 0.52 0.52 0.45 0.49 0.49 0.44 0.41 0.60 0.87 1.17 1.24
0.07 0.08 0.08 0.10 0.15 0.21 0.28 0.34 0.45 0.52 0.61 0.71 0.74 0.69 0.65 0.57 0.41 0.32 0.26 0.25 0.25 0.21 0.17 0.13 0.08 0.10 0.19 0.31 0.40 0.40 0.37 0.33 0.27 0.30 0.49 0.55 0.71 0.93

GEFSNE_prec_meanprecacc_096.txt.gz
Total_Precipitation_Accumulation
0.52 0.57 0.61 0.59 0.61 0.65 0.73 0.87 1.00 0.89 0.68 0.54 0.51 0.49 0.50 0.49 0.50 0.47 0.41 0.45 0.44 0.43 0.44 0.45 0.46 0.48 0.50 0.54 0.62 0.71 0.79 0.85 0.90 0.95 1.03 1.12 1.22 1.33
0.37 0.42 0.46 0.48 0.52 0.57 0.63 0.71 0.85 0.95 0.81 0.57 0.49 0.47 0.48 0.45 0.45 0.41 0.37 0.41 0.40 0.39 0.40 0.41 0.40 0.40 0.41 0.44 0.49 0.54 0.59 0.65 0.72 0.82 0.92 1.02 1.12 1.24
0.26 0.31 0.36 0.40 0.44 0.47 0.51 0.56 0.63 0.74 0.74 0.55 0.46 0.43 0.42 0.38 0.35 0.34 0.30 0.29 0.28 0.32 0.35 0.37 0.39 0.40 0.40 0.41 0.43 0.45 0.48 0.53 0.61 0.71 0.82 0.92 1.00 1.04
0.18 0.22 0.27 0.30 0.36 0.41 0.46 0.47 0.49 0.52 0.60 0.54 0.40 0.35 0.32 0.28 0.26 0.25 0.24 0.24 0.22 0.25 0.30 0.35 0.40 0.42 0.40 0.39 0.39 0.40 0.42 0.45 0.50 0.54 0.61 0.69 0.79 0.89
0.18 0.23 0.28 0.33 0.38 0.41 0.43 0.44 0.44 0.47 0.54 0.56 0.40 0.32 0.28 0.24 0.24 0.20 0.21 0.21 0.20 0.21 0.25 0.27 0.30 0.33 0.36 0.38 0.38 0.38 0.38 0.40 0.42 0.46 0.49 0.54 0.61 0.71
0.23 0.28 0.31 0.33 0.34 0.33 0.34 0.36 0.40 0.41 0.42 0.46 0.42 0.33 0.28 0.22 0.22 0.20 0.20 0.19 0.20 0.21 0.24 0.26 0.28 0.30 0.30 0.31 0.31 0.31 0.31 0.35 0.42 0.51 0.58 0.62 0.64 0.66
0.31 0.31 0.30 0.28 0.26 0.25 0.27 0.28 0.31 0.35 0.41 0.49 0.46 0.36 0.28 0.24 0.21 0.22 0.27 0.26 0.24 0.22 0.24 0.24 0.27 0.32 0.35 0.38 0.40 0.39 0.40 0.45 0.55 0.66 0.73 0.78 0.79 0.79
0.30 0.26 0.24 0.22 0.19 0.19 0.20 0.22 0.28 0.37 0.45 0.52 0.50 0.42 0.30 0.29 0.33 0.40 0.46 0.52 0.45 0.28 0.33 0.39 0.44 0.51 0.52 0.53 0.59 0.60 0.60 0.63 0.67 0.72 0.76 0.79 0.80 0.84
0.22 0.19 0.17 0.15 0.14 0.12 0.11 0.15 0.19 0.27 0.36 0.40 0.36 0.26 0.24 0.24 0.38 0.50 0.54 0.60 0.52 0.38 0.45 0.52 0.49 0.51 0.51 0.54 0.62 0.62 0.58 0.57 0.59 0.63 0.67 0.69 0.69 0.73
0.09 0.08 0.07 0.06 0.06 0.10 0.16 0.20 0.14 0.11 0.12 0.14 0.14 0.15 0.19 0.25 0.41 0.59 0.66 0.68 0.53 0.42 0.41 0.48 0.41 0.39 0.38 0.40 0.47 0.49 0.46 0.47 0.50 0.54 0.57 0.58 0.58 0.60
0.04 0.04 0.05 0.04 0.06 0.18 0.26 0.26 0.14 0.05 0.04 0.08 0.13 0.14 0.17 0.20 0.28 0.49 0.68 0.78 0.64 0.37 0.31 0.38 0.38 0.38 0.36 0.33 0.36 0.42 0.42 0.43 0.44 0.45 0.47 0.49 0.52 0.56
0.04 0.03 0.03 0.05 0.12 0.25 0.26 0.24 0.13 0.05 0.08 0.07 0.06 0.05 0.04 0.06 0.16 0.36 0.75 1.13 0.92 0.58 0.32 0.42 0.47 0.53 0.63 0.36 0.31 0.35 0.35 0.34 0.34 0.35 0.36 0.39 0.43 0.47
0.06 0.03 0.02 0.09 0.19 0.23 0.19 0.09 0.10 0.18 0.15 0.06 0.05 0.04 0.04 0.04 0.08 0.16 0.42 1.04 1.34 0.96 0.48 0.76 0.90 0.64 0.73 0.48 0.31 0.32 0.34 0.39 0.42 0.39 0.38 0.39 0.41 0.48
0.08 0.05 0.06 0.14 0.16 0.11 0.06 0.06 0.13 0.13 0.05 0.05 0.06 0.06 0.08 0.11 0.15 0.21 0.27 0.44 0.78 0.99 0.72 0.93 1.26 0.88 0.91 0.67 0.38 0.34 0.38 0.52 0.67 0.64 0.57 0.55 0.48 0.48
0.09 0.12 0.14 0.11 0.06 0.02 0.03 0.05 0.06 0.05 0.09 0.16 0.15 0.13 0.15 0.22 0.29 0.32 0.32 0.35 0.41 0.49 0.54 0.63 0.93 0.94 1.01 0.90 0.60 0.45 0.53 0.59 0.77 0.95 0.90 0.74 0.56 0.48
0.12 0.12 0.07 0.03 0.02 0.02 0.02 0.02 0.03 0.07 0.19 0.26 0.23 0.17 0.18 0.25 0.31 0.41 0.52 0.54 0.59 0.54 0.50 0.49 0.60 0.84 0.88 0.64 0.70 0.65 0.68 0.91 0.99 1.17 1.14 0.87 0.65 0.52
0.14 0.05 0.01 0.01 0.02 0.02 0.01 0.01 0.03 0.06 0.13 0.18 0.24 0.26 0.25 0.33 0.43 0.55 0.71 0.78 0.81 0.70 0.57 0.43 0.37 0.43 0.55 0.60 0.61 0.54 0.66 0.91 1.11 1.22 1.19 1.01 0.80 0.64
0.07 0.02 0.02 0.03 0.04 0.04 0.04 0.05 0.04 0.08 0.17 0.28 0.31 0.35 0.42 0.50 0.59 0.66 0.79 0.89 0.83 0.66 0.54 0.42 0.35 0.32 0.28 0.28 0.43 0.64 0.75 0.94 1.09 1.09 0.94 0.91 0.89 0.72
0.03 0.04 0.05 0.05 0.05 0.06 0.09 0.12 0.14 0.14 0.27 0.42 0.49 0.53 0.59 0.64 0.71 0.77 0.80 0.77 0.65 0.51 0.42 0.35 0.40 0.61 0.59 0.35 0.27 0.55 0.96 1.05 0.95 0.89 0.76 0.73 0.84 0.73
0.04 0.06 0.06 0.06 0.07 0.10 0.14 0.21 0.25 0.26 0.35 0.48 0.57 0.62 0.69 0.77 0.81 0.79 0.73 0.67 0.58 0.42 0.27 0.18 0.26 0.60 0.97 0.87 0.67 0.61 0.74 0.95 0.97 0.88 0.67 0.58 0.65 0.62
0.05 0.05 0.05 0.07 0.11 0.14 0.18 0.26 0.35 0.45 0.53 0.65 0.68 0.71 0.76 0.88 0.85 0.71 0.58 0.44 0.37 0.30 0.22 0.14 0.17 0.33 0.58 0.68 0.61 0.54 0.65 0.75 0.86 1.03 0.91 0.75 0.60 0.50
0.05 0.05 0.05 0.07 0.13 0.18 0.24 0.31 0.42 0.48 0.57 0.66 0.71 0.72 0.76 0.82 0.76 0.55 0.38 0.30 0.24 0.22 0.20 0.12 0.09 0.13 0.29 0.54 0.53 0.45 0.49 0.49 0.44 0.41 0.60 0.88 1.19 1.25
0.07 0.08 0.08 0.10 0.15 0.22 0.29 0.35 0.45 0.53 0.61 0.72 0.74 0.69 0.66 0.57 0.41 0.32 0.26 0.25 0.25 0.21 0.17 0.13 0.09 0.10 0.20 0.31 0.41 0.40 0.37 0.33 0.27 0.30 0.49 0.55 0.71 0.93

GEFSNE_prec_meanprecacc_102.txt.gz
Total_Precipitation_Accumulation
0.55 0.60 0.63 0.62 0.64 0.68 0.75 0.90 1.02 0.92 0.69 0.54 0.51 0.50 0.50 0.49 0.50 0.47 0.41 0.45 0.44 0.43 0.45 0.46 0.47 0.49 0.51 0.55 0.63 0.72 0.79 0.86 0.91 0.98 1.05 1.16 1.29 1.41
0.39 0.44 0.49 0.50 0.54 0.59 0.65 0.72 0.86 0.96 0.82 0.57 0.49 0.47 0.48 0.45 0.45 0.41 0.37 0.41 0.40 0.40 0.40 0.41 0.41 0.40 0.41 0.44 0.49 0.55 0.59 0.65 0.74 0.84 0.95 1.05 1.15 1.28
0.28 0.33 0.38 0.42 0.46 0.49 0.52 0.57 0.64 0.74 0.75 0.55 0.46 0.43 0.42 0.38 0.35 0.34 0.30 0.29 0.28 0.32 0.35 0.37 0.39 0.40 0.40 0.41 0.43 0.45 0.48 0.53 0.62 0.72 0.83 0.94 1.02 1.06
0.19 0.23 0.27 0.31 0.37 0.42 0.46 0.48 0.49 0.53 0.61 0.55 0.40 0.35 0.32 0.29 0.26 0.25 0.24 0.24 0.22 0.25 0.30 0.35 0.40 0.42 0.40 0.39 0.39 0.40 0.42 0.45 0.50 0.55 0.61 0.69 0.79 0.90
0.18 0.24 0.29 0.34 0.39 0.41 0.44 0.45 0.45 0.47 0.54 0.57 0.40 0.32 0.28 0.24 0.24 0.20 0.21 0.21 0.20 0.21 0.25 0.27 0.30 0.33 0.36 0.38 0.38 0.38 0.38 0.40 0.42 0.46 0.49 0.54 0.61 0.71
0.23 0.28 0.31 0.33 0.34 0.34 0.35 0.36 0.40 0.42 0.42 0.47 0.42 0.33 0.28 0.22 0.22 0.20 0.20 0.19 0.20 0.21 0.24 0.26 0.28 0.30 0.30 0.31 0.31 0.31 0.31 0.35 0.42 0.51 0.58 0.62 0.64 0.66
0.32 0.31 0.30 0.29 0.26 0.25 0.27 0.29 0.31 0.35 0.41 0.49 0.47 0.37 0.28 0.24 0.22 0.22 0.27 0.26 0.24 0.22 0.24 0.24 0.27 0.32 0.35 0.38 0.40 0.39 0.40 0.45 0.55 0.66 0.73 0.78 0.79 0.79
0.30 0.26 0.24 0.22 0.19 0.19 0.20 0.22 0.28 0.37 0.46 0.52 0.50 0.42 0.30 0.29 0.33 0.40 0.47 0.52 0.45 0.28 0.33 0.39 0.44 0.51 0.52 0.53 0.59 0.60 0.60 0.63 0.67 0.72 0.76 0.79 0.81 0.84
0.22 0.19 0.17 0.15 0.14 0.12 0.11 0.15 0.19 0.27 0.36 0.40 0.36 0.26 0.24 0.25 0.39 0.50 0.54 0.60 0.52 0.38 0.45 0.52 0.49 0.51 0.51 0.54 0.62 0.62 0.58 0.57 0.59 0.63 0.67 0.69 0.69 0.73
0.10 0.08 0.07 0.06 0.06 0.10 0.16 0.20 0.15 0.11 0.12 0.14 0.14 0.15 0.19 0.25 0.41 0.59 0.67 0.68 0.53 0.42 0.41 0.48 0.41 0.39 0.38 0.40 0.47 0.49 0.46 0.47 0.50 0.54 0.57 0.58 0.58 0.60
0.05 0.04 0.05 0.04 0.06 0.18 0.26 0.26 0.14 0.05 0.04 0.08 0.13 0.14 0.17 0.20 0.28 0.49 0.68 0.78 0.64 0.37 0.31 0.38 0.38 0.38 0.36 0.33 0.36 0.42 0.42 0.43 0.44 0.45 0.47 0.49 0.52 0.56
0.04 0.03 0.03 0.05 0.12 0.25 0.26 0.24 0.13 0.05 0.08 0.07 0.06 0.05 0.04 0.06 0.16 0.36 0.75 1.13 0.92 0.58 0.32 0.42 0.47 0.53 0.63 0.36 0.31 0.35 0.35 0.34 0.34 0.35 0.36 0.39 0.43 0.47
0.06 0.03 0.02 0.09 0.19 0.23 0.19 0.09 0.10 0.18 0.15 0.06 0.05 0.04 0.04 0.04 0.08 0.16 0.42 1.04 1.34 0.96 0.48 0.76 0.90 0.64 0.73 0.48 0.31 0.32 0.34 0.39 0.42 0.39 0.38 0.39 0.41 0.48
0.08 0.05 0.06 0.15 0.16 0.11 0.06 0.06 0.13 0.13 0.05 0.05 0.06 0.06 0.08 0.11 0.15 0.21 0.27 0.44 0.78 0.99 0.72 0.93 1.26 0.88 0.91 0.67 0.38 0.34 0.38 0.52 0.67 0.64 0.57 0.55 0.48 0.48
0.09 0.12 0.14 0.11 0.06 0.02 0.03 0.05 0.06 0.05 0.09 0.16 0.15 0.13 0.15 0.22 0.29 0.32 0.32 0.35 0.41 0.49 0.54 0.63 0.93 0.94 1.01 0.90 0.60 0.45 0.53 0.59 0.77 0.95 0.90 0.74 0.56 0.48
0.12 0.12 0.07 0.03 0.02 0.02 0.02 0.02 0.03 0.07 0.19 0.26 0.23 0.17 0.18 0.25 0.31 0.41 0.52 0.54 0.59 0.54 0.50 0.49 0.60 0.84 0.88 0.64 0.70 0.65 0.68 0.91 0.99 1.17 1.14 0.87 0.65 0.52
0.14 0.05 0.01 0.01 0.02 0.02 0.01 0.01 0.03 0.06 0.13 0.18 0.24 0.26 0.25 0.33 0.43 0.55 0.71 0.78 0.81 0.70 0.57 0.43 0.37 0.43 0.55 0.60 0.61 0.54 0.66 0.91 1.11 1.22 1.19 1.01 0.80 0.64
0.08 0.02 0.02 0.03 0.04 0.04 0.05 0.05 0.04 0.08 0.18 0.28 0.32 0.35 0.42 0.50 0.59 0.66 0.79 0.89 0.83 0.66 0.54 0.42 0.35 0.33 0.28 0.28 0.43 0.65 0.75 0.94 1.09 1.09 0.94 0.91 0.90 0.72
0.03 0.04 0.05 0.05 0.06 0.07 0.09 0.13 0.14 0.14 0.27 0.42 0.49 0.53 0.59 0.64 0.71 0.77 0.80 0.77 0.65 0.51 0.42 0.35 0.40 0.61 0.59 0.35 0.27 0.55 0.96 1.05 0.95 0.89 0.76 0.73 0.84 0.73
0.04 0.06 0.07 0.06 0.08 0.11 0.15 0.21 0.25 0.26 0.35 0.48 0.57 0.62 0.69 0.77 0.81 0.79 0.73 0.67 0.58 0.42 0.27 0.18 0.26 0.60 0.97 0.87 0.67 0.61 0.74 0.95 0.97 0.88 0.67 0.58 0.65 0.62
0.05 0.05 0.05 0.07 0.11 0.15 0.19 0.26 0.36 0.45 0.53 0.65 0.69 0.71 0.76 0.88 0.85 0.71 0.58 0.44 0.37 0.30 0.22 0.14 0.17 0.34 0.59 0.70 0.61 0.54 0.65 0.75 0.86 1.03 0.91 0.76 0.60 0.51
0.06 0.06 0.06 0.08 0.14 0.19 0.24 0.32 0.42 0.49 0.57 0.66 0.71 0.72 0.76 0.82 0.76 0.56 0.38 0.31 0.25 0.22 0.20 0.13 0.09 0.13 0.30 0.55 0.54 0.45 0.49 0.49 0.44 0.41 0.60 0.88 1.20 1.26
0.08 0.09 0.09 0.11 0.16 0.23 0.29 0.36 0.46 0.53 0.62 0.72 0.74 0.70 0.66 0.58 0.41 0.32 0.27 0.26 0.26 0.21 0.18 0.13 0.09 0.11 0.20 0.32 0.41 0.40 0.37 0.33 0.27 0.30 0.49 0.55 0.71 0.94

GEFSNE_prec_meanprecacc_108.txt.gz
Total_Precipitation_Accumulation
0.57 0.61 0.65 0.64 0.66 0.70 0.78 0.93 1.06 0.94 0.70 0.55 0.52 0.50 0.50 0.49 0.51 0.48 0.42 0.46 0.45 0.44 0.45 0.46 0.47 0.50 0.53 0.59 0.66 0.74 0.81 0.87 0.92 0.99 1.07 1.18 1.32 1.47
0.41 0.46 0.50 0.52 0.56 0.61 0.67 0.74 0.89 0.99 0.83 0.57 0.49 0.47 0.48 0.45 0.46 0.42 0.38 0.43 0.41 0.41 0.41 0.41 0.41 0.41 0.43 0.47 0.52 0.57 0.61 0.66 0.75 0.85 0.97 1.07 1.18 1.33
0.30 0.36 0.40 0.44 0.48 0.50 0.54 0.59 0.66 0.77 0.78 0.57 0.47 0.44 0.43 0.38 0.36 0.34 0.31 0.30 0.29 0.33 0.36 0.37 0.40 0.41 0.42 0.43 0.44 0.47 0.50 0.54 0.63 0.73 0.85 0.95 1.04 1.09
0.23 0.26 0.29 0.33 0.39 0.44 0.48 0.50 0.51 0.55 0.63 0.56 0.41 0.36 0.33 0.29 0.27 0.26 0.25 0.25 0.23 0.26 0.31 0.36 0.40 0.42 0.41 0.40 0.39 0.41 0.43 0.46 0.50 0.55 0.62 0.71 0.82 0.92
0.22 0.27 0.31 0.35 0.40 0.42 0.45 0.46 0.46 0.48 0.55 0.58 0.41 0.32 0.29 0.25 0.24 0.21 0.21 0.22 0.20 0.21 0.25 0.28 0.30 0.33 0.36 0.38 0.38 0.38 0.39 0.40 0.42 0.46 0.50 0.55 0.62 0.72
0.26 0.30 0.32 0.34 0.34 0.34 0.35 0.36 0.40 0.42 0.43 0.47 0.43 0.33 0.29 0.23 0.23 0.21 0.20 0.19 0.20 0.22 0.24 0.26 0.28 0.30 0.31 0.31 0.31 0.31 0.31 0.35 0.42 0.51 0.58 0.62 0.64 0.66
0.33 0.32 0.30 0.29 0.26 0.25 0.27 0.29 0.31 0.35 0.42 0.49 0.47 0.37 0.29 0.25 0.22 0.23 0.28 0.26 0.25 0.23 0.24 0.24 0.28 0.32 0.35 0.38 0.40 0.39 0.40 0.45 0.55 0.66 0.73 0.78 0.79 0.79
0.30 0.27 0.24 0.22 0.19 0.19 0.21 0.22 0.28 0.37 0.46 0.52 0.50 0.42 0.31 0.30 0.33 0.41 0.47 0.53 0.46 0.28 0.33 0.39 0.44 0.52 0.52 0.53 0.59 0.60 0.60 0.63 0.67 0.72 0.76 0.79 0.81 0.84
0.22 0.20 0.17 0.15 0.15 0.12 0.11 0.15 0.19 0.27 0.36 0.40 0.36 0.26 0.24 0.25 0.39 0.51 0.55 0.61 0.53 0.39 0.46 0.53 0.50 0.51 0.51 0.54 0.62 0.62 0.58 0.57 0.59 0.63 0.67 0.69 0.69 0.73
0.10 0.08 0.07 0.06 0.06 0.10 0.16 0.20 0.15 0.11 0.12 0.14 0.14 0.15 0.19 0.25 0.41 0.60 0.67 0.68 0.54 0.42 0.42 0.48 0.41 0.39 0.38 0.40 0.47 0.49 0.46 0.47 0.50 0.54 0.57 0.58 0.58 0.60
0.05 0.04 0.05 0.04 0.06 0.18 0.26 0.26 0.14 0.05 0.04 0.08 0.13 0.15 0.17 0.21 0.28 0.49 0.68 0.78 0.64 0.38 0.31 0.38 0.38 0.38 0.36 0.33 0.36 0.42 0.42 0.43 0.44 0.45 0.47 0.49 0.52 0.56
0.04 0.03 0.04 0.05 0.13 0.25 0.26 0.24 0.13 0.06 0.08 0.08 0.06 0.05 0.05 0.06 0.16 0.36 0.75 1.13 0.92 0.58 0.32 0.42 0.47 0.53 0.63 0.36 0.31 0.35 0.35 0.34 0.34 0.35 0.36 0.39 0.43 0.47
0.07 0.03 0.02 0.09 0.19 0.24 0.19 0.09 0.10 0.18 0.15 0.06 0.05 0.04 0.04 0.04 0.08 0.17 0.42 1.04 1.34 0.96 0.48 0.76 0.90 0.64 0.73 0.48 0.31 0.32 0.34 0.39 0.42 0.39 0.38 0.39 0.41 0.48
0.08 0.05 0.06 0.15 0.16 0.11 0.06 0.06 0.13 0.13 0.05 0.05 0.06 0.06 0.08 0.11 0.15 0.21 0.27 0.44 0.78 0.99 0.72 0.93 1.26 0.88 0.91 0.67 0.38 0.34 0.38 0.52 0.67 0.64 0.57 0.55 0.48 0.48
0.09 0.12 0.14 0.11 0.06 0.02 0.03 0.05 0.06 0.05 0.09 0.16 0.15 0.13 0.15 0.22 0.29 0.32 0.32 0.35 0.41 0.49 0.54 0.63 0.93 0.94 1.01 0.91 0.60 0.45 0.53 0.59 0.77 0.95 0.90 0.74 0.56 0.48
0.12 0.12 0.08 0.03 0.02 0.02 0.02 0.02 0.03 0.07 0.19 0.26 0.23 0.17 0.18 0.25 0.31 0.41 0.52 0.54 0.59 0.54 0.50 0.49 0.60 0.84 0.88 0.64 0.70 0.65 0.68 0.91 0.99 1.17 1.14 0.87 0.65 0.52
0.14 0.05 0.01 0.01 0.02 0.02 0.01 0.01 0.03 0.06 0.13 0.18 0.24 0.26 0.25 0.33 0.43 0.55 0.71 0.78 0.82 0.70 0.57 0.43 0.37 0.43 0.55 0.60 0.61 0.54 0.66 0.91 1.11 1.22 1.19 1.01 0.80 0.64
0.08 0.03 0.03 0.03 0.04 0.05 0.05 0.05 0.05 0.08 0.18 0.28 0.32 0.36 0.42 0.50 0.59 0.66 0.79 0.89 0.83 0.66 0.54 0.42 0.35 0.33 0.29 0.28 0.43 0.65 0.75 0.94 1.09 1.09 0.94 0.91 0.90 0.72
0.04 0.05 0.06 0.06 0.06 0.07 0.10 0.13 0.14 0.15 0.27 0.42 0.49 0.53 0.59 0.64 0.71 0.77 0.80 0.77 0.65 0.52 0.42 0.35 0.40 0.62 0.60 0.35 0.27 0.55 0.96 1.05 0.95 0.89 0.76 0.73 0.85 0.73
0.05 0.07 0.07 0.07 0.08 0.12 0.15 0.22 0.26 0.27 0.36 0.48 0.57 0.62 0.69 0.77 0.81 0.79 0.73 0.67 0.58 0.42 0.27 0.18 0.26 0.60 0.97 0.88 0.67 0.61 0.74 0.95 0.97 0.88 0.67 0.58 0.65 0.62
0.06 0.06 0.06 0.08 0.12 0.15 0.19 0.27 0.36 0.46 0.53 0.66 0.69 0.71 0.77 0.88 0.85 0.72 0.59 0.44 0.37 0.30 0.22 0.14 0.17 0.34 0.59 0.70 0.62 0.54 0.65 0.75 0.86 1.03 0.91 0.76 0.60 0.51
0.06 0.07 0.06 0.08 0.14 0.20 0.25 0.33 0.43 0.49 0.58 0.67 0.72 0.73 0.77 0.83 0.77 0.56 0.39 0.31 0.25 0.23 0.20 0.13 0.10 0.14 0.30 0.56 0.54 0.46 0.49 0.49 0.44 0.41 0.60 0.89 1.20 1.26
0.09 0.10 0.10 0.12 0.17 0.24 0.31 0.37 0.47 0.54 0.62 0.73 0.76 0.71 0.68 0.59 0.42 0.33 0.28 0.27 0.27 0.22 0.18 0.14 0.10 0.12 0.21 0.33 0.42 0.41 0.37 0.33 0.27 0.30 0.49 0.55 0.71 0.94

GEFSNE_prec_meanprecacc_114.txt.gz
Total_Precipitation_Accumulation
0.64 0.67 0.69 0.67 0.69 0.72 0.79 0.94 1.07 0.94 0.70 0.55 0.52 0.51 0.51 0.50 0.52 0.48 0.42 0.47 0.46 0.44 0.46 0.47 0.48 0.50 0.54 0.60 0.68 0.76 0.83 0.88 0.94 1.01 1.09 1.20 1.35 1.51
0.47 0.51 0.54 0.55 0.58 0.62 0.67 0.75 0.90 1.00 0.85 0.58 0.50 0.48 0.49 0.46 0.47 0.43 0.39 0.44 0.42 0.42 0.42 0.42 0.42 0.42 0.43 0.48 0.54 0.59 0.63 0.69 0.76 0.87 0.98 1.09 1.20 1.35
0.34 0.38 0.43 0.46 0.49 0.51 0.55 0.60 0.67 0.78 0.79 0.58 0.48 0.45 0.44 0.39 0.37 0.35 0.32 0.31 0.30 0.34 0.36 0.38 0.40 0.41 0.42 0.44 0.46 0.50 0.53 0.58 0.65 0.75 0.86 0.97 1.06 1.10
0.25 0.28 0.31 0.35 0.39 0.44 0.49 0.50 0.52 0.56 0.64 0.57 0.42 0.37 0.33 0.30 0.28 0.27 0.26 0.25 0.23 0.27 0.31 0.36 0.41 0.43 0.42 0.41 0.41 0.44 0.46 0.49 0.52 0.57 0.64 0.73 0.84 0.93
0.24 0.28 0.33 0.37 0.41 0.43 0.46 0.47 0.46 0.49 0.56 0.58 0.42 0.33 0.29 0.26 0.26 0.22 0.22 0.22 0.20 0.22 0.26 0.28 0.31 0.34 0.37 0.39 0.40 0.40 0.41 0.42 0.45 0.48 0.52 0.57 0.64 0.74
0.28 0.32 0.35 0.35 0.36 0.35 0.36 0.37 0.41 0.43 0.44 0.48 0.43 0.34 0.29 0.24 0.24 0.22 0.21 0.19 0.20 0.22 0.25 0.27 0.29 0.31 0.31 0.31 0.32 0.33 0.33 0.37 0.44 0.53 0.60 0.64 0.65 0.68
0.35 0.34 0.33 0.31 0.28 0.26 0.28 0.29 0.32 0.36 0.42 0.50 0.48 0.38 0.29 0.25 0.23 0.23 0.28 0.27 0.26 0.23 0.25 0.25 0.28 0.33 0.36 0.39 0.41 0.40 0.41 0.46 0.56 0.66 0.74 0.78 0.80 0.80
0.32 0.28 0.26 0.24 0.21 0.21 0.21 0.23 0.29 0.38 0.46 0.53 0.51 0.42 0.31 0.30 0.34 0.41 0.48 0.54 0.47 0.29 0.34 0.40 0.45 0.52 0.53 0.54 0.60 0.61 0.61 0.64 0.68 0.72 0.77 0.79 0.81 0.85
0.23 0.20 0.18 0.16 0.15 0.12 0.12 0.15 0.19 0.27 0.36 0.40 0.36 0.27 0.24 0.25 0.40 0.52 0.56 0.62 0.54 0.40 0.47 0.54 0.50 0.52 0.52 0.55 0.64 0.63 0.59 0.57 0.59 0.63 0.67 0.69 0.69 0.73
0.11 0.09 0.07 0.07 0.06 0.10 0.16 0.20 0.15 0.11 0.12 0.14 0.14 0.15 0.20 0.26 0.41 0.60 0.68 0.69 0.55 0.43 0.42 0.49 0.42 0.40 0.39 0.40 0.48 0.49 0.47 0.47 0.50 0.54 0.57 0.58 0.58 0.60
0.05 0.04 0.05 0.04 0.06 0.18 0.26 0.26 0.14 0.05 0.04 0.08 0.13 0.15 0.17 0.21 0.29 0.50 0.69 0.79 0.65 0.38 0.32 0.38 0.38 0.38 0.36 0.33 0.36 0.42 0.42 0.43 0.44 0.45 0.47 0.49 0.52 0.56
0.04 0.03 0.04 0.05 0.13 0.25 0.26 0.24 0.13 0.06 0.08 0.08 0.06 0.05 0.05 0.06 0.17 0.36 0.75 1.13 0.92 0.59 0.33 0.42 0.47 0.53 0.63 0.36 0.31 0.35 0.35 0.34 0.34 0.35 0.36 0.39 0.43 0.47
0.07 0.03 0.02 0.09 0.19 0.24 0.19 0.09 0.10 0.18 0.15 0.06 0.05 0.04 0.04 0.04 0.08 0.17 0.42 1.04 1.35 0.96 0.48 0.76 0.90 0.64 0.74 0.48 0.31 0.32 0.34 0.39 0.42 0.39 0.38 0.39 0.41 0.48
0.08 0.05 0.06 0.15 0.16 0.11 0.06 0.06 0.13 0.13 0.05 0.05 0.06 0.06 0.08 0.11 0.15 0.21 0.27 0.44 0.78 0.99 0.72 0.93 1.26 0.89 0.91 0.67 0.38 0.34 0.38 0.52 0.67 0.64 0.57 0.55 0.48 0.48
0.09 0.12 0.14 0.11 0.06 0.02 0.03 0.06 0.06 0.05 0.09 0.16 0.15 0.13 0.15 0.22 0.29 0.32 0.32 0.35 0.42 0.49 0.54 0.63 0.93 0.94 1.01 0.91 0.60 0.45 0.53 0.59 0.77 0.95 0.90 0.74 0.56 0.48
0.13 0.13 0.08 0.03 0.02 0.02 0.02 0.02 0.03 0.07 0.19 0.26 0.23 0.17 0.18 0.25 0.31 0.41 0.52 0.54 0.59 0.54 0.50 0.49 0.60 0.84 0.88 0.64 0.70 0.66 0.68 0.91 0.99 1.17 1.14 0.87 0.65 0.52
0.15 0.06 0.02 0.01 0.02 0.02 0.02 0.01 0.03 0.06 0.13 0.18 0.24 0.26 0.25 0.33 0.43 0.55 0.71 0.78 0.82 0.70 0.57 0.43 0.37 0.43 0.55 0.60 0.61 0.54 0.66 0.91 1.11 1.22 1.19 1.01 0.80 0.64
0.09 0.04 0.03 0.04 0.05 0.05 0.05 0.05 0.05 0.09 0.18 0.28 0.32 0.36 0.42 0.50 0.59 0.66 0.79 0.89 0.84 0.66 0.54 0.42 0.35 0.33 0.29 0.28 0.43 0.65 0.75 0.94 1.09 1.09 0.94 0.91 0.90 0.72
0.05 0.05 0.06 0.06 0.07 0.08 0.10 0.13 0.14 0.15 0.27 0.42 0.49 0.53 0.60 0.64 0.71 0.77 0.80 0.77 0.65 0.52 0.42 0.36 0.40 0.62 0.60 0.35 0.27 0.55 0.96 1.05 0.95 0.89 0.76 0.73 0.85 0.73
0.06 0.07 0.08 0.07 0.09 0.12 0.16 0.22 0.26 0.27 0.36 0.48 0.57 0.62 0.69 0.78 0.82 0.79 0.73 0.67 0.58 0.42 0.27 0.18 0.26 0.60 0.98 0.88 0.67 0.61 0.74 0.95 0.97 0.88 0.67 0.58 0.65 0.62
0.07 0.06 0.07 0.09 0.12 0.16 0.20 0.27 0.37 0.46 0.54 0.66 0.69 0.71 0.77 0.89 0.85 0.72 0.59 0.44 0.38 0.30 0.23 0.14 0.17 0.34 0.59 0.70 0.62 0.54 0.65 0.75 0.86 1.03 0.91 0.76 0.60 0.51
0.08 0.08 0.07 0.09 0.15 0.20 0.25 0.34 0.44 0.50 0.59 0.68 0.72 0.73 0.77 0.84 0.77 0.56 0.39 0.31 0.25 0.23 0.20 0.13 0.10 0.14 0.31 0.56 0.54 0.46 0.49 0.49 0.44 0.41 0.60 0.89 1.20 1.26
0.11 0.12 0.11 0.13 0.18 0.25 0.32 0.38 0.49 0.55 0.63 0.74 0.76 0.72 0.68 0.60 0.43 0.33 0.28 0.27 0.27 0.23 0.19 0.15 0.11 0.13 0.21 0.33 0.42 0.41 0.37 0.33 0.27 0.30 0.49 0.55 0.71 0.94

GEFSNE_prec_meanprecacc_120.txt.gz
Total_Precipitation_Accumulation
0.71 0.74 0.76 0.73 0.75 0.77 0.84 0.99 1.12 0.99 0.73 0.57 0.53 0.51 0.51 0.50 0.52 0.49 0.43 0.48 0.47 0.46 0.47 0.48 0.49 0.51 0.54 0.60 0.69 0.77 0.85 0.90 0.96 1.03 1.11 1.23 1.39 1.56
0.53 0.56 0.59 0.60 0.64 0.68 0.74 0.81 0.95 1.05 0.89 0.60 0.51 0.48 0.49 0.46 0.48 0.43 0.39 0.45 0.43 0.43 0.43 0.44 0.44 0.42 0.44 0.48 0.54 0.59 0.64 0.70 0.78 0.89 1.00 1.11 1.23 1.38
0.40 0.44 0.47 0.50 0.53 0.56 0.60 0.65 0.72 0.82 0.83 0.60 0.49 0.46 0.44 0.39 0.37 0.36 0.32 0.31 0.31 0.36 0.38 0.39 0.41 0.42 0.43 0.44 0.46 0.51 0.54 0.59 0.68 0.78 0.89 0.99 1.07 1.12
0.31 0.34 0.36 0.39 0.44 0.48 0.53 0.55 0.57 0.61 0.68 0.60 0.44 0.38 0.34 0.30 0.28 0.27 0.26 0.26 0.25 0.29 0.33 0.37 0.42 0.43 0.42 0.42 0.42 0.45 0.48 0.51 0.56 0.62 0.68 0.76 0.86 0.96
0.30 0.33 0.36 0.40 0.44 0.46 0.48 0.50 0.50 0.52 0.58 0.61 0.44 0.34 0.30 0.27 0.26 0.22 0.23 0.23 0.21 0.24 0.28 0.29 0.32 0.34 0.37 0.40 0.41 0.42 0.44 0.45 0.48 0.51 0.55 0.60 0.68 0.78
0.33 0.36 0.38 0.38 0.38 0.38 0.38 0.39 0.43 0.45 0.45 0.49 0.45 0.35 0.30 0.25 0.24 0.22 0.22 0.20 0.21 0.23 0.26 0.27 0.29 0.31 0.32 0.32 0.33 0.34 0.36 0.40 0.48 0.57 0.63 0.67 0.68 0.70
0.38 0.38 0.37 0.36 0.32 0.30 0.31 0.32 0.34 0.37 0.44 0.51 0.49 0.39 0.30 0.27 0.24 0.24 0.29 0.28 0.26 0.24 0.25 0.25 0.29 0.33 0.36 0.40 0.42 0.42 0.43 0.50 0.60 0.70 0.77 0.81 0.82 0.82
0.35 0.31 0.28 0.27 0.24 0.25 0.25 0.26 0.31 0.39 0.47 0.54 0.52 0.44 0.32 0.31 0.34 0.42 0.49 0.55 0.47 0.29 0.34 0.41 0.46 0.53 0.53 0.54 0.60 0.63 0.63 0.66 0.71 0.77 0.80 0.81 0.82 0.86
0.28 0.24 0.21 0.19 0.18 0.15 0.14 0.18 0.21 0.29 0.37 0.41 0.37 0.27 0.25 0.26 0.41 0.53 0.57 0.63 0.55 0.40 0.48 0.55 0.51 0.53 0.52 0.55 0.64 0.64 0.60 0.59 0.61 0.66 0.70 0.71 0.71 0.74
0.17 0.14 0.12 0.11 0.11 0.14 0.19 0.22 0.16 0.12 0.13 0.14 0.15 0.15 0.20 0.26 0.42 0.61 0.68 0.70 0.56 0.44 0.43 0.50 0.43 0.40 0.39 0.41 0.49 0.50 0.47 0.48 0.51 0.55 0.58 0.59 0.59 0.60
0.12 0.10 0.11 0.09 0.11 0.21 0.29 0.27 0.15 0.06 0.05 0.08 0.13 0.15 0.17 0.21 0.29 0.50 0.69 0.80 0.65 0.39 0.32 0.39 0.39 0.39 0.37 0.34 0.37 0.42 0.42 0.43 0.45 0.46 0.48 0.50 0.52 0.56
0.10 0.08 0.08 0.09 0.16 0.27 0.28 0.25 0.14 0.06 0.08 0.08 0.06 0.05 0.05 0.06 0.17 0.36 0.75 1.14 0.93 0.59 0.33 0.43 0.47 0.54 0.63 0.36 0.31 0.35 0.35 0.34 0.34 0.35 0.37 0.39 0.44 0.47
0.11 0.08 0.06 0.12 0.22 0.26 0.20 0.10 0.11 0.19 0.15 0.06 0.05 0.04 0.04 0.04 0.08 0.17 0.42 1.04 1.35 0.97 0.49 0.76 0.90 0.64 0.74 0.48 0.31 0.32 0.34 0.39 0.42 0.39 0.38 0.39 0.41 0.48
0.12 0.08 0.08 0.18 0.19 0.13 0.07 0.06 0.13 0.13 0.05 0.05 0.06 0.06 0.08 0.11 0.15 0.21 0.27 0.44 0.78 0.99 0.73 0.93 1.26 0.89 0.91 0.67 0.39 0.34 0.38 0.52 0.67 0.64 0.57 0.55 0.48 0.48
0.13 0.15 0.17 0.14 0.08 0.04 0.04 0.07 0.07 0.05 0.10 0.16 0.15 0.13 0.15 0.22 0.29 0.32 0.32 0.35 0.42 0.49 0.54 0.63 0.93 0.94 1.01 0.91 0.60 0.45 0.53 0.59 0.77 0.95 0.90 0.74 0.56 0.48
0.16 0.17 0.12 0.06 0.05 0.04 0.04 0.03 0.03 0.07 0.19 0.26 0.23 0.17 0.18 0.25 0.31 0.41 0.52 0.54 0.59 0.54 0.50 0.49 0.60 0.84 0.88 0.64 0.70 0.66 0.68 0.91 0.99 1.17 1.14 0.87 0.65 0.52
0.20 0.11 0.06 0.05 0.04 0.04 0.03 0.02 0.03 0.06 0.13 0.18 0.24 0.26 0.25 0.33 0.43 0.55 0.71 0.78 0.82 0.70 0.57 0.43 0.37 0.43 0.55 0.60 0.61 0.54 0.66 0.91 1.11 1.22 1.19 1.01 0.80 0.64
0.16 0.09 0.08 0.08 0.07 0.07 0.06 0.06 0.05 0.09 0.18 0.28 0.32 0.36 0.42 0.50 0.59 0.66 0.79 0.89 0.84 0.67 0.54 0.42 0.35 0.33 0.29 0.28 0.43 0.65 0.75 0.94 1.09 1.09 0.94 0.91 0.90 0.72
0.10 0.10 0.10 0.09 0.09 0.10 0.11 0.14 0.15 0.15 0.28 0.42 0.50 0.53 0.60 0.64 0.71 0.78 0.80 0.77 0.65 0.52 0.42 0.36 0.40 0.62 0.60 0.35 0.27 0.55 0.96 1.05 0.95 0.89 0.76 0.73 0.85 0.73
0.10 0.10 0.10 0.10 0.11 0.14 0.18 0.23 0.27 0.28 0.37 0.49 0.57 0.63 0.69 0.78 0.82 0.79 0.73 0.67 0.58 0.42 0.27 0.18 0.26 0.61 0.98 0.88 0.67 0.61 0.74 0.95 0.97 0.88 0.67 0.58 0.65 0.62
0.11 0.10 0.10 0.12 0.15 0.18 0.22 0.29 0.38 0.48 0.55 0.67 0.70 0.72 0.77 0.89 0.86 0.72 0.59 0.45 0.38 0.31 0.23 0.14 0.17 0.34 0.60 0.71 0.62 0.54 0.65 0.75 0.86 1.03 0.91 0.76 0.60 0.51
0.12 0.12 0.11 0.12 0.18 0.23 0.27 0.35 0.45 0.51 0.60 0.69 0.73 0.74 0.78 0.84 0.78 0.57 0.39 0.32 0.26 0.23 0.20 0.13 0.10 0.15 0.32 0.57 0.55 0.46 0.49 0.49 0.44 0.41 0.60 0.89 1.20 1.26
0.15 0.16 0.15 0.17 0.21 0.28 0.34 0.40 0.50 0.57 0.65 0.76 0.78 0.73 0.69 0.61 0.44 0.34 0.29 0.28 0.28 0.23 0.19 0.15 0.11 0.13 0.22 0.33 0.42 0.41 0.37 0.33 0.27 0.30 0.49 0.55 0.71 0.94

GEFSNE_prec_meanprecacc_126.txt.gz
Total_Precipitation_Accumulation
0.78 0.80 0.82 0.79 0.80 0.83 0.90 1.05 1.18 1.05 0.77 0.59 0.55 0.53 0.52 0.51 0.54 0.50 0.43 0.49 0.48 0.47 0.48 0.49 0.49 0.52 0.55 0.61 0.69 0.78 0.85 0.91 0.97 1.06 1.15 1.27 1.44 1.62
0.60 0.63 0.66 0.65 0.69 0.73 0.79 0.86 1.01 1.11 0.94 0.64 0.54 0.51 0.51 0.48 0.49 0.44 0.40 0.47 0.45 0.44 0.44 0.45 0.44 0.43 0.45 0.49 0.55 0.60 0.65 0.71 0.79 0.91 1.04 1.16 1.27 1.41
0.45 0.49 0.52 0.55 0.58 0.61 0.65 0.70 0.77 0.88 0.88 0.65 0.53 0.49 0.47 0.42 0.39 0.37 0.33 0.33 0.32 0.37 0.38 0.40 0.42 0.42 0.43 0.45 0.47 0.51 0.54 0.60 0.69 0.80 0.92 1.02 1.10 1.15
0.37 0.39 0.42 0.46 0.50 0.54 0.59 0.60 0.62 0.66 0.73 0.64 0.47 0.41 0.37 0.33 0.31 0.29 0.28 0.27 0.25 0.30 0.34 0.38 0.43 0.45 0.43 0.42 0.42 0.45 0.48 0.51 0.57 0.63 0.71 0.79 0.88 0.98
0.36 0.39 0.42 0.46 0.50 0.52 0.54 0.55 0.55 0.57 0.64 0.66 0.48 0.38 0.33 0.29 0.28 0.25 0.25 0.25 0.23 0.26 0.29 0.30 0.33 0.36 0.38 0.40 0.41 0.42 0.44 0.45 0.49 0.53 0.57 0.63 0.71 0.81
0.41 0.43 0.45 0.45 0.44 0.43 0.44 0.45 0.49 0.51 0.51 0.55 0.50 0.40 0.34 0.27 0.27 0.25 0.24 0.22 0.23 0.24 0.28 0.29 0.30 0.32 0.33 0.33 0.34 0.35 0.36 0.41 0.48 0.58 0.65 0.69 0.70 0.73
0.47 0.45 0.44 0.43 0.39 0.36 0.37 0.38 0.41 0.44 0.50 0.57 0.53 0.42 0.33 0.29 0.26 0.26 0.31 0.29 0.28 0.25 0.26 0.26 0.30 0.34 0.37 0.41 0.43 0.43 0.44 0.51 0.61 0.72 0.79 0.84 0.85 0.84
0.44 0.39 0.36 0.35 0.32 0.33 0.33 0.34 0.39 0.47 0.54 0.60 0.57 0.47 0.35 0.33 0.36 0.43 0.50 0.56 0.49 0.30 0.35 0.41 0.47 0.53 0.53 0.55 0.61 0.64 0.65 0.69 0.74 0.79 0.82 0.83 0.84 0.88
0.37 0.32 0.29 0.27 0.27 0.23 0.23 0.27 0.30 0.38 0.46 0.49 0.44 0.32 0.28 0.29 0.43 0.55 0.59 0.64 0.56 0.42 0.49 0.56 0.52 0.53 0.52 0.56 0.66 0.65 0.62 0.62 0.64 0.69 0.73 0.74 0.73 0.75
0.28 0.24 0.22 0.20 0.20 0.24 0.29 0.32 0.25 0.20 0.21 0.22 0.21 0.21 0.24 0.29 0.44 0.62 0.70 0.71 0.57 0.45 0.44 0.51 0.43 0.41 0.39 0.41 0.50 0.51 0.49 0.50 0.54 0.58 0.61 0.62 0.61 0.62
0.23 0.22 0.22 0.19 0.21 0.32 0.39 0.36 0.24 0.13 0.12 0.16 0.20 0.20 0.22 0.25 0.31 0.51 0.70 0.81 0.66 0.39 0.33 0.39 0.39 0.39 0.37 0.34 0.37 0.43 0.43 0.45 0.47 0.48 0.50 0.52 0.54 0.58
0.22 0.20 0.21 0.21 0.27 0.39 0.38 0.34 0.23 0.13 0.15 0.14 0.12 0.10 0.08 0.09 0.19 0.38 0.76 1.15 0.94 0.60 0.33 0.43 0.48 0.54 0.64 0.37 0.32 0.35 0.36 0.36 0.36 0.37 0.38 0.41 0.46 0.48
0.23 0.18 0.16 0.25 0.34 0.36 0.30 0.19 0.19 0.26 0.21 0.12 0.10 0.08 0.07 0.07 0.10 0.18 0.43 1.05 1.36 0.97 0.49 0.77 0.91 0.64 0.74 0.49 0.32 0.32 0.34 0.40 0.43 0.40 0.39 0.41 0.43 0.49
0.20 0.16 0.16 0.26 0.27 0.20 0.13 0.13 0.20 0.19 0.10 0.09 0.10 0.09 0.10 0.13 0.17 0.22 0.28 0.45 0.79 1.00 0.73 0.94 1.27 0.89 0.92 0.68 0.39 0.34 0.38 0.52 0.67 0.64 0.58 0.55 0.49 0.49
0.22 0.24 0.26 0.23 0.17 0.11 0.10 0.12 0.12 0.09 0.13 0.19 0.17 0.15 0.16 0.23 0.29 0.33 0.32 0.35 0.42 0.50 0.55 0.64 0.94 0.95 1.02 0.91 0.60 0.46 0.53 0.59 0.77 0.95 0.90 0.74 0.56 0.49
0.26 0.27 0.22 0.17 0.14 0.12 0.11 0.08 0.07 0.11 0.22 0.29 0.25 0.19 0.19 0.26 0.32 0.41 0.53 0.54 0.60 0.54 0.51 0.50 0.61 0.85 0.89 0.64 0.70 0.66 0.69 0.91 0.99 1.18 1.14 0.87 0.65 0.52
0.28 0.18 0.14 0.13 0.13 0.11 0.09 0.07 0.07 0.10 0.17 0.21 0.26 0.28 0.27 0.34 0.43 0.55 0.71 0.79 0.82 0.70 0.58 0.44 0.38 0.43 0.56 0.61 0.61 0.55 0.66 0.91 1.11 1.22 1.19 1.02 0.80 0.64
0.25 0.17 0.14 0.14 0.13 0.12 0.11 0.11 0.09 0.12 0.21 0.31 0.34 0.38 0.44 0.51 0.60 0.66 0.80 0.89 0.84 0.67 0.54 0.42 0.35 0.33 0.29 0.28 0.43 0.65 0.75 0.94 1.09 1.09 0.94 0.91 0.90 0.72
0.19 0.17 0.15 0.14 0.14 0.15 0.17 0.20 0.20 0.19 0.32 0.46 0.53 0.56 0.62 0.65 0.72 0.78 0.81 0.78 0.66 0.52 0.42 0.36 0.41 0.62 0.60 0.35 0.27 0.55 0.96 1.05 0.95 0.89 0.76 0.73 0.85 0.73
0.18 0.18 0.17 0.15 0.16 0.20 0.24 0.30 0.33 0.33 0.41 0.53 0.60 0.65 0.72 0.80 0.83 0.81 0.74 0.68 0.59 0.43 0.27 0.19 0.27 0.61 0.98 0.88 0.67 0.61 0.74 0.95 0.97 0.88 0.67 0.58 0.65 0.62
0.19 0.17 0.16 0.17 0.20 0.23 0.27 0.35 0.44 0.52 0.59 0.70 0.73 0.74 0.79 0.91 0.87 0.73 0.60 0.46 0.39 0.31 0.23 0.15 0.18 0.34 0.60 0.72 0.63 0.54 0.65 0.75 0.86 1.03 0.91 0.76 0.60 0.51
0.20 0.19 0.17 0.18 0.23 0.28 0.32 0.40 0.50 0.56 0.64 0.72 0.76 0.77 0.80 0.86 0.79 0.58 0.40 0.33 0.27 0.24 0.21 0.14 0.11 0.15 0.33 0.58 0.55 0.46 0.49 0.49 0.44 0.41 0.60 0.89 1.20 1.26
0.21 0.22 0.21 0.22 0.26 0.33 0.39 0.45 0.55 0.61 0.68 0.79 0.81 0.76 0.72 0.63 0.45 0.35 0.30 0.29 0.29 0.24 0.20 0.16 0.12 0.15 0.23 0.34 0.43 0.41 0.37 0.34 0.27 0.31 0.49 0.56 0.71 0.94

GEFSNE_prec_meanprecacc_132.txt.gz
Total_Precipitation_Accumulation
0.87 0.88 0.88 0.85 0.86 0.90 0.98 1.13 1.27 1.13 0.83 0.64 0.59 0.56 0.55 0.54 0.56 0.51 0.44 0.50 0.49 0.47 0.49 0.50 0.51 0.53 0.56 0.62 0.71 0.80 0.87 0.93 0.98 1.07 1.17 1.29 1.47 1.67
0.72 0.75 0.75 0.74 0.78 0.82 0.88 0.95 1.09 1.18 0.99 0.68 0.57 0.53 0.53 0.50 0.52 0.46 0.42 0.49 0.46 0.45 0.45 0.46 0.45 0.44 0.46 0.50 0.56 0.63 0.68 0.72 0.80 0.92 1.05 1.17 1.29 1.45
0.55 0.59 0.61 0.63 0.66 0.67 0.71 0.76 0.82 0.94 0.94 0.69 0.56 0.53 0.51 0.45 0.42 0.40 0.36 0.35 0.33 0.38 0.39 0.41 0.43 0.44 0.44 0.46 0.49 0.53 0.57 0.62 0.70 0.81 0.94 1.04 1.12 1.17
0.47 0.49 0.52 0.55 0.57 0.60 0.64 0.65 0.67 0.72 0.79 0.70 0.52 0.46 0.42 0.38 0.35 0.33 0.31 0.30 0.27 0.32 0.35 0.39 0.45 0.46 0.45 0.44 0.44 0.47 0.50 0.52 0.58 0.64 0.72 0.80 0.90 1.00
0.45 0.49 0.51 0.56 0.60 0.60 0.61 0.61 0.61 0.64 0.70 0.71 0.53 0.43 0.39 0.35 0.34 0.30 0.29 0.28 0.26 0.29 0.32 0.33 0.35 0.38 0.40 0.42 0.43 0.44 0.45 0.46 0.50 0.54 0.58 0.64 0.72 0.83
0.49 0.52 0.54 0.54 0.54 0.54 0.54 0.53 0.56 0.58 0.58 0.62 0.57 0.47 0.41 0.34 0.34 0.32 0.31 0.27 0.27 0.29 0.32 0.32 0.33 0.34 0.35 0.35 0.36 0.36 0.37 0.41 0.49 0.58 0.66 0.71 0.72 0.75
0.57 0.54 0.53 0.53 0.50 0.47 0.47 0.48 0.50 0.52 0.57 0.64 0.61 0.50 0.41 0.37 0.33 0.32 0.37 0.35 0.33 0.30 0.30 0.30 0.33 0.37 0.39 0.43 0.45 0.45 0.46 0.52 0.62 0.72 0.79 0.85 0.87 0.87
0.55 0.50 0.47 0.47 0.45 0.45 0.46 0.46 0.51 0.57 0.64 0.69 0.65 0.54 0.41 0.39 0.42 0.50 0.57 0.63 0.55 0.35 0.39 0.46 0.50 0.56 0.55 0.57 0.63 0.65 0.67 0.70 0.74 0.79 0.82 0.84 0.86 0.90
0.47 0.43 0.40 0.38 0.40 0.36 0.38 0.42 0.45 0.52 0.58 0.59 0.53 0.40 0.36 0.36 0.50 0.62 0.66 0.69 0.61 0.46 0.53 0.61 0.56 0.57 0.55 0.58 0.68 0.67 0.64 0.63 0.65 0.69 0.73 0.75 0.74 0.77
0.41 0.37 0.34 0.32 0.32 0.36 0.42 0.46 0.40 0.35 0.35 0.33 0.31 0.30 0.34 0.39 0.53 0.71 0.78 0.79 0.64 0.52 0.49 0.56 0.48 0.44 0.43 0.44 0.52 0.53 0.51 0.52 0.55 0.59 0.62 0.63 0.63 0.64
0.37 0.35 0.34 0.31 0.34 0.45 0.50 0.48 0.36 0.26 0.26 0.29 0.33 0.33 0.35 0.37 0.42 0.61 0.79 0.88 0.74 0.47 0.39 0.44 0.43 0.43 0.41 0.37 0.40 0.45 0.45 0.47 0.49 0.51 0.52 0.54 0.56 0.60
0.36 0.34 0.36 0.35 0.42 0.53 0.50 0.46 0.36 0.26 0.26 0.25 0.24 0.23 0.20 0.20 0.29 0.46 0.84 1.22 1.00 0.66 0.39 0.48 0.51 0.57 0.67 0.40 0.34 0.37 0.37 0.38 0.38 0.39 0.41 0.44 0.47 0.49
0.38 0.32 0.31 0.42 0.50 0.52 0.44 0.31 0.31 0.39 0.33 0.23 0.20 0.19 0.18 0.17 0.19 0.26 0.51 1.12 1.42 1.03 0.54 0.81 0.94 0.67 0.76 0.50 0.33 0.33 0.35 0.42 0.45 0.43 0.42 0.43 0.45 0.50
0.37 0.31 0.31 0.43 0.43 0.36 0.28 0.26 0.32 0.30 0.20 0.19 0.20 0.20 0.20 0.23 0.26 0.30 0.36 0.52 0.85 1.05 0.77 0.97 1.29 0.90 0.92 0.69 0.40 0.35 0.39 0.53 0.69 0.67 0.60 0.58 0.51 0.51
0.38 0.41 0.42 0.38 0.31 0.25 0.24 0.25 0.23 0.19 0.23 0.29 0.27 0.25 0.25 0.32 0.37 0.39 0.38 0.41 0.47 0.55 0.59 0.67 0.96 0.96 1.03 0.92 0.61 0.46 0.53 0.60 0.78 0.97 0.92 0.76 0.58 0.50
0.41 0.43 0.38 0.32 0.27 0.26 0.25 0.22 0.18 0.20 0.31 0.38 0.33 0.28 0.28 0.34 0.39 0.47 0.58 0.59 0.63 0.58 0.54 0.52 0.62 0.86 0.90 0.65 0.71 0.66 0.69 0.92 0.99 1.19 1.15 0.89 0.67 0.53
0.42 0.32 0.28 0.29 0.27 0.24 0.21 0.20 0.20 0.22 0.27 0.30 0.35 0.36 0.35 0.42 0.50 0.61 0.76 0.82 0.85 0.73 0.60 0.45 0.39 0.45 0.57 0.62 0.62 0.55 0.67 0.91 1.12 1.23 1.19 1.03 0.81 0.64
0.38 0.29 0.27 0.26 0.26 0.25 0.24 0.23 0.23 0.25 0.32 0.41 0.43 0.46 0.52 0.59 0.67 0.73 0.85 0.93 0.87 0.69 0.56 0.44 0.37 0.35 0.31 0.30 0.44 0.66 0.76 0.95 1.09 1.09 0.95 0.92 0.90 0.73
0.30 0.27 0.27 0.25 0.25 0.25 0.28 0.30 0.31 0.31 0.43 0.56 0.62 0.65 0.70 0.74 0.80 0.85 0.86 0.82 0.69 0.54 0.44 0.38 0.42 0.64 0.61 0.36 0.28 0.56 0.96 1.05 0.95 0.89 0.76 0.73 0.85 0.74
0.29 0.27 0.25 0.25 0.27 0.30 0.33 0.39 0.42 0.42 0.51 0.62 0.69 0.73 0.79 0.87 0.90 0.86 0.79 0.72 0.62 0.45 0.29 0.21 0.28 0.62 0.99 0.89 0.68 0.62 0.75 0.96 0.98 0.88 0.67 0.58 0.65 0.62
0.29 0.28 0.27 0.27 0.31 0.34 0.38 0.45 0.52 0.60 0.66 0.78 0.80 0.82 0.86 0.98 0.93 0.78 0.64 0.50 0.42 0.34 0.25 0.16 0.19 0.36 0.61 0.73 0.64 0.55 0.66 0.76 0.86 1.03 0.91 0.76 0.61 0.51
0.31 0.31 0.30 0.31 0.35 0.39 0.43 0.51 0.60 0.65 0.72 0.80 0.83 0.84 0.87 0.93 0.85 0.63 0.45 0.37 0.30 0.26 0.23 0.15 0.12 0.17 0.34 0.59 0.56 0.47 0.50 0.50 0.45 0.42 0.60 0.89 1.20 1.27
0.33 0.35 0.33 0.35 0.39 0.45 0.50 0.56 0.65 0.71 0.77 0.86 0.88 0.82 0.78 0.69 0.50 0.40 0.34 0.32 0.32 0.27 0.22 0.18 0.14 0.16 0.24 0.35 0.44 0.42 0.38 0.34 0.28 0.31 0.50 0.56 0.72 0.94

GEFSNE_prec_meanprecacc_138.txt.gz
Total_Precipitation_Accumulation
0.94 0.96 0.97 0.92 0.93 0.97 1.05 1.21 1.35 1.21 0.88 0.66 0.61 0.58 0.57 0.55 0.57 0.52 0.45 0.50 0.50 0.48 0.50 0.52 0.52 0.55 0.58 0.65 0.74 0.83 0.90 0.96 1.02 1.11 1.20 1.31 1.49 1.69
0.80 0.82 0.83 0.82 0.85 0.89 0.95 1.02 1.17 1.26 1.06 0.72 0.59 0.55 0.55 0.52 0.53 0.47 0.43 0.49 0.47 0.46 0.46 0.48 0.47 0.45 0.47 0.51 0.58 0.65 0.70 0.75 0.84 0.96 1.09 1.20 1.32 1.47
0.66 0.70 0.71 0.71 0.74 0.75 0.79 0.84 0.90 1.02 1.02 0.74 0.59 0.55 0.53 0.48 0.44 0.42 0.37 0.36 0.35 0.40 0.41 0.43 0.46 0.45 0.46 0.47 0.50 0.55 0.59 0.64 0.73 0.85 0.97 1.07 1.15 1.20
0.59 0.61 0.63 0.65 0.68 0.71 0.74 0.74 0.75 0.79 0.87 0.77 0.57 0.50 0.45 0.41 0.38 0.36 0.34 0.32 0.29 0.35 0.38 0.41 0.47 0.50 0.48 0.46 0.46 0.50 0.53 0.56 0.61 0.68 0.76 0.84 0.93 1.04
0.55 0.59 0.61 0.65 0.69 0.71 0.72 0.72 0.71 0.73 0.79 0.80 0.60 0.48 0.44 0.40 0.39 0.34 0.33 0.33 0.30 0.33 0.36 0.36 0.38 0.42 0.44 0.46 0.46 0.47 0.48 0.50 0.54 0.58 0.62 0.68 0.77 0.88
0.61 0.63 0.65 0.64 0.64 0.63 0.65 0.64 0.66 0.68 0.70 0.74 0.68 0.56 0.47 0.40 0.40 0.37 0.35 0.31 0.32 0.34 0.38 0.38 0.38 0.38 0.38 0.39 0.40 0.40 0.41 0.46 0.54 0.63 0.71 0.76 0.77 0.79
0.74 0.71 0.68 0.67 0.63 0.59 0.59 0.61 0.63 0.65 0.70 0.77 0.72 0.59 0.48 0.42 0.38 0.36 0.41 0.40 0.38 0.35 0.37 0.37 0.39 0.41 0.43 0.47 0.50 0.50 0.51 0.57 0.67 0.78 0.86 0.92 0.92 0.91
0.74 0.68 0.63 0.63 0.61 0.61 0.59 0.59 0.64 0.72 0.78 0.82 0.76 0.64 0.48 0.44 0.47 0.55 0.63 0.70 0.62 0.41 0.44 0.52 0.56 0.62 0.60 0.61 0.68 0.71 0.73 0.77 0.81 0.85 0.88 0.92 0.94 0.95
0.63 0.58 0.54 0.51 0.53 0.49 0.50 0.55 0.58 0.65 0.71 0.72 0.64 0.49 0.42 0.42 0.56 0.69 0.73 0.76 0.67 0.52 0.59 0.68 0.63 0.63 0.61 0.64 0.75 0.73 0.70 0.70 0.73 0.76 0.78 0.81 0.82 0.83
0.52 0.49 0.47 0.44 0.44 0.48 0.54 0.58 0.51 0.46 0.46 0.44 0.41 0.39 0.41 0.46 0.62 0.81 0.88 0.89 0.74 0.61 0.58 0.64 0.55 0.50 0.48 0.52 0.61 0.62 0.58 0.58 0.62 0.67 0.68 0.69 0.69 0.70
0.47 0.46 0.46 0.43 0.47 0.58 0.63 0.62 0.48 0.36 0.36 0.40 0.44 0.43 0.45 0.48 0.54 0.74 0.93 1.02 0.85 0.57 0.48 0.52 0.50 0.50 0.48 0.45 0.49 0.55 0.53 0.53 0.55 0.56 0.58 0.59 0.61 0.65
0.48 0.46 0.49 0.48 0.56 0.67 0.63 0.60 0.49 0.37 0.36 0.36 0.36 0.35 0.32 0.32 0.41 0.57 0.94 1.31 1.09 0.75 0.48 0.55 0.59 0.66 0.78 0.49 0.42 0.46 0.46 0.44 0.44 0.45 0.46 0.49 0.51 0.52
0.50 0.45 0.45 0.58 0.66 0.68 0.60 0.45 0.45 0.52 0.46 0.36 0.34 0.32 0.30 0.29 0.31 0.37 0.61 1.21 1.50 1.10 0.61 0.88 1.01 0.75 0.84 0.58 0.42 0.41 0.43 0.48 0.50 0.48 0.46 0.47 0.48 0.53
0.47 0.42 0.44 0.58 0.59 0.53 0.47 0.45 0.51 0.47 0.35 0.33 0.34 0.33 0.32 0.34 0.36 0.41 0.46 0.62 0.94 1.13 0.84 1.04 1.35 0.96 0.98 0.73 0.45 0.41 0.45 0.59 0.74 0.71 0.64 0.61 0.54 0.54
0.47 0.51 0.54 0.52 0.46 0.42 0.45 0.47 0.44 0.38 0.40 0.45 0.42 0.37 0.37 0.43 0.48 0.50 0.50 0.51 0.57 0.65 0.69 0.76 1.03 1.02 1.08 0.96 0.64 0.50 0.58 0.65 0.83 1.01 0.95 0.80 0.61 0.53
0.52 0.54 0.50 0.46 0.43 0.43 0.45 0.43 0.37 0.38 0.49 0.55 0.49 0.42 0.41 0.47 0.51 0.58 0.69 0.69 0.74 0.68 0.64 0.63 0.72 0.94 0.96 0.70 0.75 0.70 0.72 0.96 1.03 1.22 1.18 0.92 0.70 0.56
0.53 0.44 0.41 0.43 0.42 0.40 0.38 0.39 0.39 0.40 0.44 0.45 0.49 0.50 0.49 0.56 0.63 0.73 0.88 0.94 0.96 0.83 0.69 0.55 0.49 0.53 0.64 0.67 0.67 0.60 0.70 0.94 1.15 1.25 1.22 1.05 0.84 0.68
0.49 0.40 0.37 0.37 0.39 0.39 0.38 0.38 0.39 0.41 0.48 0.56 0.58 0.60 0.66 0.73 0.81 0.86 0.98 1.05 0.98 0.79 0.65 0.52 0.45 0.42 0.37 0.36 0.49 0.69 0.79 0.98 1.12 1.11 0.96 0.93 0.92 0.75
0.40 0.37 0.37 0.36 0.37 0.39 0.42 0.44 0.45 0.44 0.57 0.71 0.77 0.79 0.85 0.88 0.93 0.98 0.98 0.93 0.80 0.64 0.53 0.46 0.49 0.69 0.66 0.41 0.32 0.59 0.99 1.08 0.97 0.91 0.78 0.74 0.86 0.75
0.37 0.35 0.34 0.35 0.38 0.42 0.46 0.53 0.57 0.56 0.65 0.76 0.82 0.86 0.92 1.00 1.02 0.98 0.89 0.81 0.71 0.53 0.37 0.28 0.35 0.67 1.03 0.91 0.71 0.65 0.77 0.98 0.99 0.89 0.68 0.59 0.66 0.63
0.36 0.36 0.35 0.36 0.41 0.45 0.50 0.58 0.66 0.75 0.80 0.91 0.93 0.94 0.98 1.09 1.04 0.89 0.75 0.60 0.51 0.42 0.32 0.22 0.24 0.40 0.66 0.77 0.67 0.58 0.68 0.78 0.88 1.04 0.92 0.77 0.61 0.51
0.38 0.37 0.37 0.39 0.44 0.49 0.54 0.62 0.72 0.78 0.85 0.92 0.95 0.95 0.98 1.03 0.95 0.72 0.53 0.45 0.37 0.33 0.29 0.20 0.17 0.22 0.39 0.62 0.59 0.49 0.52 0.52 0.46 0.43 0.61 0.89 1.21 1.27
0.41 0.43 0.42 0.43 0.47 0.53 0.59 0.65 0.75 0.82 0.89 0.98 0.99 0.93 0.88 0.79 0.60 0.50 0.42 0.40 0.39 0.33 0.29 0.24 0.19 0.21 0.28 0.39 0.47 0.45 0.40 0.36 0.29 0.32 0.51 0.57 0.72 0.94